Flag for Japan Weather past 2 weeks in Fukuoka, Japan

Now
68 °F

Partly sunny.


Feels Like: 68 °F
Forecast: 58 / 67 °F
Wind: 13 mph from Northwest

Location: Fukuoka Airport


UV Index: 5 (Moderate)

Visibility: N/A


Pressure: 29.86 "Hg

Humidity: 60%

Dew point: 54 °F

Location of FukuokaLocation

Historic Weather in Fukuoka

°F

Fukuoka temperature yesterday

Maximum temperature yesterday: 64 °F (at 3:30 PM)
Minimum temperature yesterday: 54 °F (at 6:30 AM)
Average temperature yesterday: 58 °F

Past Weeks' High & Low Weather Summary

 TemperatureHumidityPressure
High73 °F (Apr 16, 2:00 PM)94% (Apr 13, 5:00 AM)30.18 "Hg (Apr 13, 5:00 AM)
Low41 °F (Apr 7, 4:00 AM)18% (Apr 14, 4:00 PM)29.77 "Hg (Apr 18, 12:00 AM)
Average58 °F65%30.01 "Hg
* Reported Apr 6 2:00 PM — Apr 21 2:30 PM, Fukuoka, Weather by CustomWeather, © 2014

Note: Actual official high and low records may vary slightly from our data, if they occured in-between our weather recording intervals... More about our weather records

Advertising

Historic Weather Conditions — Data for Previous 24 hours

 ConditionsComfort  
Time TempWeatherWind HumidityBarometerVisibility
2:30 PM
Apr 21
66 °FBroken clouds.14 mph68%29.89 "HgN/A
2:00 PM68 °FBroken clouds.9 mph64%29.86 "HgN/A
1:30 PM68 °FBroken clouds.5 mph69%29.86 "HgN/A
1:00 PM66 °FBroken clouds.7 mph68%29.89 "HgN/A
12:30 PM66 °FPartly sunny.6 mph68%29.89 "HgN/A
11:30 AM64 °FBroken clouds.6 mph68%29.92 "HgN/A
11:00 AM63 °FBroken clouds.8 mph77%29.95 "HgN/A
10:30 AM63 °FBroken clouds.9 mph73%29.92 "HgN/A
10:00 AM63 °FBroken clouds.5 mph73%29.92 "HgN/A
9:30 AM61 °FBroken clouds.3 mph77%29.92 "HgN/A
9:00 AM61 °FLight rain. Broken clouds.8 mph77%29.92 "HgN/A
8:30 AM61 °FPartly sunny.5 mph77%29.92 "HgN/A
8:00 AM61 °FBroken clouds.3 mph77%29.92 "HgN/A
7:30 AM59 °FBroken clouds.2 mph82%29.92 "HgN/A
7:00 AM59 °FBroken clouds.5 mph82%29.92 "HgN/A
6:00 AM59 °FPartly sunny.5 mph82%29.92 "HgN/A
5:30 AM57 °FPassing clouds.3 mph88%29.89 "HgN/A
5:00 AM57 °FPartly cloudy.3 mph82%29.89 "HgN/A
4:30 AM57 °FPassing clouds.2 mph88%29.92 "HgN/A
4:00 AM57 °FPassing clouds.3 mph88%29.92 "HgN/A
3:30 AM57 °FPartly cloudy.3 mph88%29.92 "HgN/A
3:00 AM57 °FClear.3 mph88%29.92 "Hg10 mi
2:30 AM57 °FPartly cloudy.1 mph88%29.92 "HgN/A
2:00 AM57 °FPartly cloudy.1 mph82%29.92 "HgN/A
1:30 AM55 °FPartly cloudy.2 mph88%29.92 "HgN/A
1:00 AM57 °FPassing clouds.2 mph82%29.92 "HgN/A
12:30 AM57 °FPassing clouds.5 mph82%29.95 "HgN/A
12:00 AM57 °FPassing clouds.2 mph82%29.95 "HgN/A
11:30 PM
Apr 20
57 °FPassing clouds.No wind82%29.95 "HgN/A
11:00 PM57 °FPassing clouds.2 mph77%29.95 "HgN/A
10:30 PM57 °FPartly cloudy.3 mph77%29.95 "HgN/A
10:00 PM57 °FPassing clouds.2 mph82%29.95 "HgN/A
9:30 PM59 °FPassing clouds.6 mph77%29.95 "HgN/A
9:00 PM57 °FPassing clouds.5 mph82%29.95 "HgN/A
8:30 PM59 °FPassing clouds.6 mph77%29.92 "HgN/A
8:00 PM59 °FPassing clouds.6 mph77%29.92 "HgN/A
7:30 PM59 °FPassing clouds.8 mph77%29.92 "HgN/A
7:00 PM61 °FPassing clouds.8 mph72%29.95 "HgN/A
6:30 PM61 °FPartly sunny.7 mph72%29.95 "HgN/A
6:00 PM63 °FPartly sunny.8 mph68%29.95 "HgN/A
5:30 PM63 °FBroken clouds.8 mph68%29.95 "HgN/A
5:00 PM63 °FBroken clouds.7 mph68%29.95 "HgN/A
4:30 PM63 °FPartly sunny.8 mph68%29.95 "HgN/A
4:00 PM63 °FPartly sunny.7 mph68%29.95 "HgN/A
3:30 PM64 °FPartly sunny.3 mph64%29.92 "HgN/A
3:00 PM63 °FPartly sunny.1 mph68%29.95 "HgN/A
Weather by CustomWeather, © 2014

See weather overview